Location: Unspecified
(0.0000°N, 0.0000°E)
Time: 23:44:15
(UTC+00:00)

N. Korean satellite - Pass Details

Date: 21 January 2022
Orbit: 447 x 490 km, 97.3° (Epoch: 27 January)

Event Time Altitude Azimuth Distance (km) Brightness Sun altitude
Rises 05:16:49 0° 353° (N) 2,550 10.0 -12.8°
Reaches altitude 10° 05:19:04 10° 342° (NNW) 1,670 8.9 -12.3°
Maximum altitude 05:22:12 28° 281° (W) 930 7.4 -11.5°
Drops below altitude 10° 05:25:20 10° 220° (SW) 1,667 9.1 -10.8°
Sets 05:27:35 0° 208° (SSW) 2,543 10.1 -10.3°
